EHI
0 0 0 0 0 0 0 0 0 0 0 1 3 5 6 4 1 0 1 1 4 8 13 17 19 18 16 15 13 10 8 5 2 1 1 1 2 3 3 3 3 3 3 3 3 3 4 4 5
0 0 0 0 0 0 0 0 0 0 0 1 4 6 7 5 2 0 0 1 4 8 10 14 17 17 15 13 11 8 6 4 3 2 2 2 2 2 2 1 2 2 2 2 2 3 3 3 3
0 0 0 0 0 0 0 0 0 0 1 2 3 5 6 5 3 2 2 4 5 6 7 11 15 15 12 10 9 6 4 3 3 2 3 3 2 1 1 0 1 1 1 1 1 2 3 1 1
0 0 0 0 0 0 0 0 0 2 4 4 4 4 4 6 7 9 10 9 7 5 5 8 12 12 9 8 7 5 3 2 2 2 2 2 1 1 1 1 1 1 0 0 1 2 2 1 1
0 0 0 0 0 0 0 0 1 3 5 6 6 5 6 10 16 19 16 11 7 6 5 7 9 9 8 7 6 5 3 3 2 1 1 1 1 1 1 2 2 2 1 1 0 1 1 1 1
0 0 0 0 0 0 0 1 3 5 6 7 8 7 8 15 22 22 16 9 6 6 5 6 8 9 8 7 6 6 6 5 4 3 3 3 2 2 2 3 3 3 2 1 0 0 0 0 1
0 0 0 0 0 0 0 1 2 4 6 7 8 7 9 15 21 20 14 8 7 6 6 6 7 8 8 6 5 6 6 7 6 7 7 6 6 4 3 3 4 4 4 3 1 0 1 1 0
0 0 0 0 0 0 0 0 1 3 5 6 6 6 9 16 22 22 17 12 9 8 7 6 7 7 7 6 5 4 5 6 7 8 9 9 8 5 3 3 6 7 8 7 4 2 2 2 1
0 0 0 0 0 0 0 1 2 5 9 10 9 9 13 22 27 26 23 17 12 9 7 6 6 6 6 6 5 4 3 4 5 6 7 8 6 4 2 2 5 10 12 9 6 5 4 3 1
0 0 0 0 0 0 1 2 3 7 13 14 15 16 21 27 30 28 25 20 14 9 7 6 7 7 7 6 6 4 3 3 3 4 4 4 4 2 2 1 3 8 9 8 6 6 4 2 1
0 0 0 0 0 0 1 2 3 7 11 14 16 19 24 30 30 28 26 23 18 13 8 7 8 9 7 7 6 5 4 4 4 4 4 4 3 3 3 2 2 3 5 6 5 4 3 1 1
0 0 0 0 0 0 0 1 4 7 11 15 16 17 22 27 28 27 25 24 23 18 11 8 10 10 8 7 6 6 6 6 6 6 6 5 4 3 3 3 3 3 4 5 5 3 3 2 1
0 0 0 0 0 0 1 3 6 9 14 17 17 16 18 22 26 25 24 24 24 22 17 12 10 10 8 7 7 8 9 9 8 7 6 6 5 3 3 4 4 3 4 4 4 3 3 3 2
0 0 0 0 0 1 2 4 6 9 13 16 15 14 15 20 24 25 25 24 24 24 23 17 12 10 10 11 11 10 11 11 10 8 7 7 5 4 3 3 4 4 5 5 4 3 3 3 3
0 0 0 0 0 1 2 3 4 7 11 13 12 13 15 19 23 26 28 27 25 28 28 24 19 15 14 15 15 13 12 12 11 9 8 7 6 5 4 4 4 5 5 5 4 3 3 4 4
0 0 0 0 0 0 1 1 3 6 8 10 11 12 14 17 21 26 30 29 28 31 33 31 28 22 19 19 18 17 15 14 12 9 7 7 6 6 6 6 5 5 5 5 4 3 3 3 3
0 0 0 0 0 0 0 1 4 6 7 7 8 11 14 17 21 27 32 34 33 35 37 37 34 30 26 22 21 20 17 15 12 10 7 6 7 7 6 6 6 6 6 6 5 4 4 3 2
0 0 0 0 0 0 1 3 5 6 7 8 9 12 16 19 24 30 36 38 37 37 39 39 37 34 31 26 22 21 18 15 13 11 9 8 8 8 7 7 8 8 7 7 6 6 5 4 3
0 0 0 0 0 0 1 3 5 7 8 9 11 16 19 21 26 33 37 37 36 36 36 37 37 35 33 29 24 21 18 15 14 12 10 9 9 10 9 9 9 9 8 7 6 6 5 4 3
0 0 0 0 0 0 1 3 4 5 7 10 13 16 19 22 26 31 34 34 35 35 33 33 34 34 33 30 25 20 17 15 13 12 10 10 10 11 11 9 8 8 8 6 5 4 4 3 3
0 0 0 0 0 0 1 2 2 2 5 9 13 14 18 23 25 28 32 34 35 33 30 29 30 31 31 31 27 21 17 14 12 10 10 10 10 10 9 7 5 5 5 3 2 1 1 2 2
0 0 0 0 0 0 1 1 1 2 5 9 12 13 17 22 24 28 32 34 33 30 27 28 28 28 29 30 28 23 18 13 11 10 10 9 9 8 7 5 4 4 3 2 1 0 0 1 1
0 0 0 0 0 0 0 0 1 3 6 9 11 13 18 22 26 30 33 34 32 30 29 30 30 30 29 28 26 22 16 11 10 9 9 9 7 7 6 6 5 4 3 3 2 1 0 0 0
0 0 0 0 0 0 0 0 1 4 7 9 10 14 19 24 28 32 35 35 34 34 34 33 31 30 30 27 22 18 13 9 8 9 9 7 7 6 6 6 6 5 5 4 3 2 1 1 0
0 0 0 0 0 0 0 1 2 4 8 12 14 17 19 23 30 35 37 36 35 35 36 35 32 30 29 25 21 18 13 9 8 8 7 7 6 7 7 7 7 7 6 5 4 3 3 2 1
0 0 0 0 0 0 0 1 3 6 12 17 19 19 19 22 29 35 37 36 36 37 37 36 33 30 27 25 22 20 15 11 8 7 7 7 7 7 8 8 8 8 7 6 5 4 3 2 2
0 0 0 0 0 0 0 2 5 8 14 20 20 18 17 20 27 33 35 36 37 39 37 34 31 28 26 25 23 19 15 10 8 7 7 8 8 8 8 8 9 8 7 7 7 5 2 1 2
0 0 0 0 0 0 0 2 4 7 12 16 15 13 14 18 25 30 33 34 34 36 34 30 27 24 23 23 22 17 13 9 8 8 9 9 9 9 8 9 9 8 7 8 8 7 3 1 1
0 0 0 0 0 0 0 0 1 4 7 9 9 9 10 16 22 27 29 30 31 32 30 26 22 21 21 21 20 17 12 10 8 8 8 9 9 9 9 9 9 7 7 9 9 8 5 2 1
0 0 0 0 0 0 0 0 1 3 6 7 8 7 10 15 20 24 26 28 31 31 28 23 19 18 19 19 19 17 13 10 9 8 7 8 8 9 10 10 8 6 6 9 9 8 6 4 3
Wind_Speed
4 4 2 2 4 5 1 1 1 3 4 6 9 10 9 7 5 6 4 12 14 11 9 12 13 14 13 13 13 13 12 12 12 12 12 12 12 13 13 13 13 12 12 12 12 12 12 12 12
2 3 2 3 5 2 2 1 2 4 7 8 10 10 9 8 8 10 7 12 14 12 9 11 14 14 14 13 13 12 12 12 11 11 12 12 12 12 12 13 13 12 11 12 12 11 11 11 11
2 2 3 4 2 3 2 1 2 4 5 5 5 6 6 6 8 7 10 15 12 10 8 11 15 14 14 13 12 12 11 11 11 11 11 11 11 11 12 12 12 11 11 11 11 10 10 10 10
1 3 3 4 1 4 5 4 3 4 5 5 8 7 5 5 5 10 16 15 13 10 8 11 15 14 14 13 12 11 11 11 11 11 11 11 10 10 11 11 11 11 11 10 10 10 9 9 8
3 4 4 3 3 4 2 3 4 5 2 5 10 8 5 4 13 18 16 15 14 10 7 10 14 14 14 13 12 11 11 10 10 11 11 10 10 9 10 10 10 10 10 10 9 9 8 8 8
4 4 4 2 5 4 3 3 6 8 8 7 9 8 4 7 13 15 15 13 13 12 8 8 14 14 13 13 12 11 10 10 10 10 10 10 9 9 9 9 9 9 9 8 8 8 7 6 6
3 3 2 2 4 6 4 2 5 8 8 6 8 7 5 6 10 13 13 12 11 11 9 7 7 9 12 12 11 10 10 9 10 10 10 10 9 9 9 8 8 8 7 7 7 7 7 6 5
5 4 0 1 3 6 3 1 3 7 6 8 7 8 7 8 11 12 12 10 10 9 8 7 6 6 6 6 10 10 9 9 9 10 9 9 9 8 8 7 7 7 7 7 7 6 6 5 4
3 4 3 5 4 5 2 3 2 4 7 4 4 6 11 15 14 13 10 8 8 8 6 7 7 6 5 5 8 8 8 8 8 7 8 7 4 3 4 5 7 7 7 7 6 5 4 4 4
4 4 8 7 6 3 1 2 2 5 6 5 7 9 14 15 14 14 12 10 9 9 8 7 7 7 6 6 5 3 4 3 3 3 4 3 2 2 3 4 6 6 6 6 5 4 3 3 1
3 6 6 6 6 4 1 1 2 7 5 8 13 14 14 14 12 12 12 11 10 10 9 8 8 7 6 4 4 2 2 2 2 3 3 3 2 1 1 1 2 2 3 2 2 2 1 2 2
3 6 6 5 5 4 3 2 3 5 8 12 16 16 13 13 12 12 12 11 10 10 9 8 8 7 6 5 4 3 3 2 2 3 4 3 2 2 2 1 2 2 1 1 1 1 2 2 2
4 6 4 4 3 3 4 2 3 3 9 13 14 12 11 11 10 10 10 10 9 9 8 8 8 7 6 5 4 4 3 4 4 3 3 4 3 2 2 1 1 2 2 2 2 1 1 2 2
5 3 4 3 2 2 5 2 2 4 12 13 14 12 10 10 10 9 10 9 9 8 8 7 8 7 6 5 4 4 3 3 3 3 3 4 3 3 3 2 2 2 2 2 2 2 2 1 1
2 3 5 3 2 3 4 1 3 8 12 12 12 12 10 7 9 11 11 10 8 8 7 7 8 7 7 6 5 4 3 3 3 3 3 4 3 3 3 2 2 2 1 2 2 1 1 1 1
3 2 3 6 2 3 5 4 5 8 11 10 10 11 9 7 8 9 10 9 8 8 7 7 8 8 7 5 5 3 3 3 3 2 2 3 3 3 3 2 2 1 2 2 2 2 1 1 1
3 1 4 7 4 1 4 5 5 6 10 9 9 9 10 8 8 9 10 9 9 9 8 6 6 7 6 5 4 4 3 3 3 2 2 2 3 3 3 2 2 2 2 1 2 2 2 2 1
4 3 3 5 5 1 2 5 5 6 8 10 9 9 10 11 10 10 10 10 8 7 7 7 6 6 5 4 3 3 3 2 2 2 2 3 2 3 2 2 1 2 2 1 1 1 1 2 2
5 4 6 8 6 2 4 5 6 6 7 8 9 10 10 10 8 8 9 9 8 7 7 6 6 5 5 4 3 3 2 1 1 1 2 3 3 3 3 2 1 2 2 2 1 1 1 1 1
5 5 7 8 5 2 2 4 5 6 9 11 12 11 11 9 7 8 8 9 8 8 7 6 6 6 5 4 3 3 3 2 2 1 1 2 3 3 3 3 2 2 1 1 1 1 1 1 1
7 7 7 6 4 1 3 3 3 3 4 7 10 11 12 14 13 11 10 9 9 8 8 7 6 6 5 5 3 3 2 2 1 1 1 1 2 3 2 2 2 2 2 2 2 2 2 1 1
8 8 7 5 1 2 2 2 6 4 4 7 8 9 11 12 12 12 12 11 10 9 8 7 7 6 5 5 5 5 4 3 3 2 1 1 2 2 2 2 2 2 2 2 2 2 2 2 1
8 5 2 2 2 0 1 2 7 2 5 7 9 11 11 11 13 13 13 12 11 9 8 7 6 5 5 5 5 5 3 3 2 2 2 1 1 1 2 2 2 2 2 2 2 2 2 2 2
4 3 4 4 4 1 4 3 6 5 8 7 8 10 11 11 11 11 10 10 8 8 7 7 6 5 5 5 5 5 5 4 4 3 2 1 1 1 1 2 2 2 2 2 2 2 2 1 2
4 6 3 4 3 5 4 2 8 8 6 8 10 10 11 11 11 11 11 10 10 10 9 8 8 6 5 5 5 5 5 5 5 4 4 3 1 1 2 2 2 2 2 1 1 1 1 1 2
4 9 8 5 5 5 3 4 6 4 4 6 7 7 7 7 9 11 11 10 10 10 10 9 8 7 6 6 5 4 4 3 3 3 3 3 3 2 2 2 1 1 2 1 1 1 1 1 1
3 3 7 7 3 2 4 4 5 2 3 3 4 6 7 8 9 10 9 9 9 9 9 10 9 7 6 6 5 4 4 3 3 3 3 2 2 2 2 2 2 2 2 2 1 1 1 1 1
6 6 5 5 4 3 4 3 5 3 2 2 4 5 5 7 8 9 9 9 8 8 7 7 8 8 7 6 5 5 4 4 4 3 3 3 2 2 2 2 2 2 1 1 2 1 1 1 1
1 2 4 4 5 5 3 7 6 8 7 6 5 6 6 6 7 8 8 8 7 7 7 6 6 5 5 6 5 5 4 4 4 3 3 3 2 3 3 2 2 2 2 2 2 2 2 2 1
3 4 6 5 3 4 4 7 5 6 7 7 6 5 5 6 7 6 6 7 7 7 6 6 6 5 5 5 5 5 4 4 4 3 3 3 2 2 3 2 2 2 2 2 2 2 2 2 2
Wind_Direction
190 176 144 83 52 48 334 260 146 52 51 60 81 85 84 67 103 135 140 138 136 141 141 135 132 127 123 119 114 111 109 110 109 107 105 105 106 105 104 104 105 106 109 110 111 110 108 105 104
187 166 75 56 72 50 299 232 93 100 128 114 87 88 80 74 89 113 125 140 140 140 139 137 134 130 126 123 120 117 115 116 117 113 111 109 110 109 108 108 109 109 112 113 113 113 111 109 108
222 172 94 68 94 175 232 204 126 102 115 105 93 70 76 105 112 124 141 142 136 133 137 141 137 134 130 127 125 122 120 120 122 120 118 116 115 114 113 114 113 113 114 113 113 116 112 111 110
111 52 48 65 251 226 198 213 139 91 61 70 101 72 62 105 118 131 138 139 132 132 138 145 140 138 134 131 129 127 126 126 127 128 126 123 122 121 120 120 120 119 118 118 117 117 120 120 119
74 71 46 12 294 285 235 204 142 116 92 93 97 92 70 67 111 129 138 138 135 136 141 145 143 142 139 136 134 132 130 132 133 135 134 132 131 127 126 126 125 126 126 124 124 126 128 127 128
52 64 67 332 298 297 261 179 123 116 114 106 101 106 99 116 125 137 139 139 139 142 143 146 148 146 144 142 141 140 137 137 139 141 141 141 140 138 136 134 133 133 135 137 138 138 139 139 137
113 94 157 237 289 301 267 199 127 130 127 134 125 105 122 136 138 138 137 137 138 141 144 147 151 151 151 150 149 148 146 144 146 148 150 150 150 149 149 147 146 147 148 150 152 153 154 157 154
142 104 228 250 278 281 266 176 134 131 120 129 123 126 155 163 139 133 130 131 135 141 148 152 153 156 158 157 159 157 155 154 154 156 158 160 159 160 161 161 163 162 163 164 166 166 164 165 172
114 95 219 215 224 257 306 74 75 82 111 117 103 131 151 146 134 129 127 126 138 146 154 158 159 163 166 167 170 165 164 164 160 160 164 163 165 169 173 180 179 176 175 173 175 172 169 176 187
116 163 221 210 198 227 266 113 120 91 96 91 92 109 137 139 138 141 145 148 153 158 164 165 166 170 170 173 159 163 169 164 158 157 161 160 164 179 181 191 191 188 186 182 180 180 183 190 181
177 204 230 235 224 195 178 138 97 125 141 157 147 147 151 144 145 149 154 158 163 165 165 170 167 167 170 167 159 169 164 159 162 166 164 158 155 164 159 170 193 196 194 186 181 189 184 172 161
224 251 219 227 235 198 180 163 113 152 180 163 150 150 152 149 153 156 158 161 160 161 169 169 164 165 166 160 166 171 164 164 173 181 168 152 149 151 160 171 169 168 181 164 157 166 180 171 172
247 254 249 231 236 196 161 162 135 147 147 147 143 145 152 155 156 156 154 154 157 162 165 166 162 164 161 155 163 163 168 169 174 168 161 154 150 155 157 164 165 174 174 170 170 172 177 172 172
245 257 277 255 221 180 144 178 133 158 144 149 152 156 163 162 157 153 153 155 158 158 158 158 156 160 154 154 155 157 160 158 157 156 161 161 158 156 151 151 159 178 183 177 167 172 175 179 166
288 332 311 275 216 209 133 99 204 168 148 156 161 159 160 160 157 159 161 159 158 154 148 151 155 155 151 151 154 147 149 144 149 162 165 162 158 155 148 149 157 176 170 145 135 142 140 163 163
353 12 289 282 237 230 129 204 228 171 150 159 165 162 158 161 163 160 158 154 150 147 148 155 151 147 148 147 147 141 144 141 152 160 158 162 159 154 145 151 166 160 140 136 145 153 141 170 180
4 259 258 285 272 223 142 204 213 179 152 163 175 169 159 160 162 161 159 154 153 151 150 145 139 146 146 143 140 135 135 137 147 147 146 158 155 150 144 155 165 147 137 151 171 163 164 174 195
239 244 268 268 277 210 179 209 203 185 167 169 172 170 161 164 169 162 155 151 146 146 142 140 137 142 137 127 117 109 106 123 133 139 152 155 154 147 143 148 150 139 132 143 155 170 171 181 190
212 239 263 264 262 220 207 205 204 187 170 171 169 168 166 169 161 152 149 149 144 140 137 142 141 146 141 137 138 138 147 148 142 152 151 156 158 151 148 150 143 139 148 171 172 158 157 177 146
230 240 260 278 275 210 210 234 214 187 180 178 173 171 170 157 150 153 152 154 153 152 147 149 151 153 152 154 156 157 155 157 156 149 139 156 156 162 158 149 158 159 150 158 166 146 138 185 162
246 223 228 246 295 355 107 322 264 234 183 181 176 174 171 165 164 165 161 161 158 159 159 157 159 156 157 152 133 114 91 77 78 98 143 175 160 164 160 159 163 171 169 187 197 176 156 182 227
245 233 211 220 199 272 141 242 271 224 199 188 183 179 181 171 169 170 167 166 169 171 163 155 155 154 153 144 141 146 151 167 192 183 179 182 169 166 164 158 161 171 177 195 212 188 174 158 199
223 224 195 194 154 304 340 159 270 243 217 211 194 186 181 176 173 174 173 171 170 168 161 156 152 151 150 144 150 153 157 171 160 136 139 166 183 176 169 163 161 172 184 191 191 175 176 174 179
178 69 29 41 69 300 248 178 262 232 215 204 198 189 179 172 167 171 169 160 160 158 151 148 151 155 155 150 148 153 155 154 147 151 159 175 193 195 180 169 173 180 178 183 184 174 172 184 179
103 94 37 1 3 255 249 192 241 242 215 189 189 189 180 174 164 162 161 162 165 161 160 158 160 161 159 151 153 161 159 157 165 173 175 171 177 205 211 182 183 185 183 174 165 156 166 179 172
186 142 157 187 216 266 289 229 254 256 209 174 169 163 165 170 164 164 166 166 165 165 163 163 165 165 164 159 160 161 156 157 172 180 178 181 189 201 195 177 177 180 178 171 159 165 197 178 183
157 168 171 145 182 242 268 277 308 8 66 123 154 150 167 172 167 164 161 162 163 164 166 168 165 161 163 163 158 158 157 160 170 173 171 178 187 190 183 180 178 177 175 175 165 185 208 177 188
158 157 101 115 157 246 271 246 236 232 183 155 152 153 175 173 166 163 163 166 164 162 161 163 165 166 166 166 170 170 173 171 166 157 161 173 185 183 176 184 186 185 188 179 169 199 203 167 195
106 101 108 128 160 165 239 262 226 193 188 184 195 169 158 159 160 160 161 160 155 150 152 157 161 160 165 172 172 168 174 170 163 166 175 178 183 182 181 186 185 188 198 193 180 190 183 182 202
147 163 139 149 218 172 179 261 279 177 170 167 170 159 145 142 139 142 143 143 142 147 153 161 164 165 171 174 172 175 175 167 166 177 186 180 183 192 191 183 182 192 196 190 187 201 191 185 192